[[{"header":{"parameterUnit":"m.s-1","parameterCategory":2,"la1":30.2991,"la2":30.254,"lo1":-89.0895,"lo2":-89.0444,"dy":0.0017,"dx":0.0017,"nx":28,"ny":28,"refTime":"2023-10-10T21:00:00:Z","depth":"0","parameterNumber":2,"parameterNumberName":"U-component_of_CURRENTS"},"data":[0,0,0,0,0,0,0,0,0,0,0,0,0,0,0,0,0,0,0,0,0,0,0,0,0,0,0,0,0,0,0,0,0,0,0,0,0,0,0,0,0,0,0,0,0,0,0,0,0,0,0,0,0,0,0,0,0,0,0.2416,0.2417,0,0.2477,0.2478,0.2478,0.2467,0.2466,0.2465,0.2464,0.2409,0.2409,0.2408,0,0,0,0,0,0,0,0,0,0,0,0,0,0.231,0.2312,0.2416,0.2417,0.2418,0.2477,0.2478,0.2478,0.2467,0.2466,0.2465,0.2464,0.241,0.2409,0.2408,0,0,0,0,0,0,0,0,0,0,0,0,0,0.236,0.2313,0.2416,0.2421,0.2422,0.2477,0.2478,0.2478,0.2467,0.2466,0.2465,0.2463,0.241,0.2409,0.2408,0.2428,0,0,0.2405,0.2405,0,0,0,0,0,0,0,0,0.2357,0.2364,0.2419,0.2421,0.2422,0.2465,0.242,0.2457,0.2468,0.2448,0.2464,0.2463,0.242,0.2418,0.2431,0.2426,0.2423,0.2405,0.2404,0.2404,0.2404,0,0,0,0,0,0,0,0.2354,0.2361,0.2438,0.2421,0.2422,0.2428,0.2433,0.2428,0.2436,0.2449,0.2449,0.246,0.2419,0.2432,0.2429,0.2422,0.2405,0.2404,0.2403,0.2403,0.2439,0.2441,0,0,0,0,0,0,0.2352,0.2358,0.2436,0.244,0.2389,0.2431,0.2437,0.2451,0.2439,0.2438,0.2461,0.246,0.2434,0.243,0.2427,0.2455,0.2404,0.2403,0.2402,0.2438,0.244,0.2441,0,0,0,0,0,0,0.2349,0.2358,0.2433,0.2402,0.2412,0.2434,0.245,0.2453,0.247,0.245,0.2445,0.2477,0.2433,0.2428,0.2439,0.2452,0.2402,0.2402,0.2436,0.2439,0.2441,0.2509,0,0,0,0,0,0,0.2346,0.2357,0.2362,0.2402,0.2414,0.2475,0.2452,0.2455,0.248,0.2478,0.2461,0.2455,0.2431,0.2441,0.2438,0.245,0.2401,0.2434,0.2437,0.244,0.2504,0.2513,0.252,0,0,0,0,0,0.2342,0.2354,0.2362,0.2371,0.2422,0.2477,0.2484,0.2493,0.2482,0.2501,0.2492,0.2456,0.2456,0.2442,0.2438,0.245,0.2433,0.2436,0.244,0.2501,0.2511,0.252,0,0,0,0,0,0,0.2306,0.2356,0.2365,0.239,0.2436,0.2476,0.2497,0.2503,0.2515,0.2509,0.2481,0.2475,0.2486,0.2468,0.2452,0.2471,0.2437,0.244,0.2484,0.2494,0.2502,0.2507,0.24,0,0,0,0,0,0.2305,0.2329,0.2381,0.2403,0.2433,0.2468,0.2489,0.2501,0.252,0.2525,0.2512,0.2501,0.25,0.2497,0.2489,0.2506,0.2514,0.2511,0.2519,0.2526,0.253,0.2561,0.2573,0.2453,0.2453,0.2453,0,0,0.2294,0.2328,0.2338,0.2398,0.2437,0.2482,0.2478,0.2523,0.2546,0.2516,0.2535,0.2527,0.2511,0.2528,0.253,0.2513,0.2571,0.253,0.2536,0.2536,0.2566,0.2578,0.2588,0.2455,0.2455,0.2455,0,0,0.2307,0.2328,0.2363,0.2406,0.2471,0.2495,0.2512,0.256,0.2569,0.2597,0.2578,0.2589,0.2581,0.2581,0.2577,0.2629,0.2611,0.2621,0.2665,0.2696,0.2706,0.2715,0.2769,0.2782,0.2626,0.2626,0.2626,0,0.23,0.2348,0.2382,0.2437,0.2474,0.2504,0.2556,0.2574,0.261,0.263,0.2606,0.2626,0.2607,0.2639,0.2653,0.2645,0.2669,0.2628,0.2707,0.2715,0.2723,0.2776,0.2789,0.2629,0.2629,0.2629,0.2628,0,0.2347,0.2387,0.2419,0.2492,0.2532,0.2584,0.2624,0.2651,0.2659,0.2677,0.2711,0.2698,0.2712,0.2707,0.2691,0.2741,0.2745,0.2713,0.2681,0.2739,0.2791,0.2804,0.2635,0.2633,0.2632,0.2631,0,0,0.2342,0.2435,0.2448,0.249,0.2568,0.2608,0.2654,0.2717,0.2753,0.2763,0.2808,0.2806,0.2806,0.2803,0.279,0.281,0.2889,0.2788,0.2788,0.2841,0.2986,0.3093,0.3117,0.2872,0.2874,0.2875,0.3011,0,0.2382,0.2475,0.2512,0.259,0.2645,0.2687,0.2728,0.2776,0.2808,0.2851,0.2851,0.2878,0.2841,0.2853,0.2872,0.288,0.2921,0.2856,0.2922,0.2924,0.3012,0.3135,0.3121,0.325,0.3023,0.3025,0.3027,0,0.2423,0.2482,0.2565,0.265,0.268,0.2719,0.2805,0.2847,0.291,0.294,0.2975,0.2971,0.3009,0.2955,0.3021,0.2984,0.2997,0.2999,0.3003,0.3085,0.3056,0.315,0.3281,0.3112,0.3046,0.3044,0.3043,0,0.2407,0.2516,0.2579,0.2611,0.2708,0.2748,0.2796,0.2872,0.2919,0.2997,0.3031,0.3078,0.3099,0.3118,0.3132,0.3082,0.3208,0.3136,0.3251,0.3259,0.3252,0.3257,0.3225,0.3192,0.3192,0.3191,0.3191,0,0.2432,0.2483,0.2574,0.2608,0.2677,0.2748,0.2823,0.2883,0.297,0.3044,0.3067,0.3132,0.3137,0.3198,0.3193,0.3301,0.3269,0.3302,0.3316,0.3281,0.3287,0.3141,0.3071,0.3196,0.3195,0.3194,0.3193,0,0.2407,0.2468,0.2539,0.264,0.2667,0.2715,0.2822,0.288,0.2969,0.3065,0.3089,0.3189,0.3308,0.3334,0.3399,0.3405,0.3393,0.3506,0.3489,0.3501,0.3455,0.3393,0.332,0.3214,0.3668,0.3671,0.3675,0,0.2404,0.2436,0.2538,0.2571,0.2617,0.2695,0.2746,0.2859,0.2933,0.3111,0.3156,0.3302,0.3427,0.3597,0.3667,0.3758,0.3534,0.3761,0.3662,0.3502,0.3438,0.324,0.3137,0.3679,0.3682,0.3685,0.3686,0,0.2386,0.2418,0.2474,0.2545,0.2599,0.2665,0.2758,0.2812,0.2967,0.3068,0.324,0.3361,0.3606,0.3739,0.3892,0.3916,0.3603,0.3818,0.3631,0.3463,0.3262,0.315,0.3544,0.3708,0.3706,0.3704,0.3703,0.3702,0.2361,0.2385,0.2452,0.2518,0.2575,0.2634,0.2664,0.2793,0.2909,0.3068,0.3241,0.3421,0.3675,0.3928,0.3931,0.3895,0.3801,0.3775,0.3722,0.3539,0.3407,0.3891,0.4081,0.4081,0.4081,0.4081,0.4081,0,0.2322,0.2359,0.2421,0.2483,0.2519,0.2576,0.2668,0.2697,0.2818,0.3028,0.3192,0.3476,0.3644,0.3763,0.3887,0.3791,0.3548,0.364,0.3292,0.32,0.3628,0.3596,0.3713,0.3713,0.3713,0.3713,0.3713,0.3713,0.2301,0.2338,0.238,0.2417,0.2456,0.2463,0.2498,0.2571,0.2701,0.2891,0.3068,0.3257,0.3489,0.365,0.3593,0.3517,0.3159,0.3132,0.2975,0.3218,0.322,0.3223,0.3169,0.3195,0.3194,0.2424,0.2418,0.2414]},{"header":{"parameterUnit":"m.s-1","parameterCategory":2,"la1":30.2991,"la2":30.254,"lo1":-89.0895,"lo2":-89.0444,"dy":0.0017,"dx":0.0017,"nx":28,"ny":28,"refTime":"2023-10-10T21:00:00:Z","depth":"0","parameterNumber":3,"parameterNumberName":"V-component_of_CURRENTS"},"data":[0,0,0,0,0,0,0,0,0,0,0,0,0,0,0,0,0,0,0,0,0,0,0,0,0,0,0,0,0,0,0,0,0,0,0,0,0,0,0,0,0,0,0,0,0,0,0,0,0,0,0,0,0,0,0,0,0,0,-0.1355,-0.1354,0,-0.1272,-0.1271,-0.127,-0.1252,-0.1253,-0.1253,-0.1254,-0.1208,-0.1207,-0.1205,0,0,0,0,0,0,0,0,0,0,0,0,0,-0.1465,-0.1463,-0.1356,-0.1354,-0.1353,-0.1272,-0.1271,-0.127,-0.1252,-0.1253,-0.1253,-0.1254,-0.1209,-0.1207,-0.1205,0,0,0,0,0,0,0,0,0,0,0,0,0,-0.1404,-0.1463,-0.1356,-0.1334,-0.1331,-0.1273,-0.1271,-0.127,-0.1252,-0.1253,-0.1253,-0.1254,-0.1209,-0.1207,-0.1204,-0.1173,0,0,-0.1197,-0.1195,0,0,0,0,0,0,0,0,-0.1407,-0.14,-0.1338,-0.1335,-0.1332,-0.1273,-0.1293,-0.1239,-0.1252,-0.1283,-0.1254,-0.1255,-0.1232,-0.1228,-0.1211,-0.1171,-0.1169,-0.1196,-0.1195,-0.1194,-0.1193,0,0,0,0,0,0,0,-0.1412,-0.1403,-0.1323,-0.1337,-0.1333,-0.1317,-0.1309,-0.1282,-0.1255,-0.128,-0.1278,-0.1268,-0.1231,-0.1213,-0.121,-0.1168,-0.1196,-0.1194,-0.1193,-0.1192,-0.1173,-0.1174,0,0,0,0,0,0,-0.1421,-0.1407,-0.1326,-0.1321,-0.1372,-0.1314,-0.1306,-0.1292,-0.1255,-0.1249,-0.1267,-0.1267,-0.1217,-0.1213,-0.1208,-0.1208,-0.1194,-0.1191,-0.119,-0.1172,-0.1173,-0.1175,0,0,0,0,0,0,-0.1424,-0.1414,-0.1329,-0.1362,-0.135,-0.1312,-0.1295,-0.1289,-0.1271,-0.1244,-0.124,-0.1255,-0.1218,-0.1212,-0.1181,-0.1205,-0.119,-0.1188,-0.1171,-0.1173,-0.1174,-0.1182,0,0,0,0,0,0,-0.1427,-0.1416,-0.1405,-0.1362,-0.1348,-0.1279,-0.1294,-0.1287,-0.1263,-0.1262,-0.1232,-0.1229,-0.1218,-0.1185,-0.1178,-0.1201,-0.1186,-0.117,-0.1172,-0.1173,-0.1181,-0.1184,-0.1187,0,0,0,0,0,-0.1431,-0.1394,-0.1404,-0.1394,-0.1335,-0.1277,-0.1268,-0.1245,-0.1262,-0.1236,-0.1229,-0.123,-0.1195,-0.1182,-0.1175,-0.1197,-0.1169,-0.1171,-0.1173,-0.1179,-0.1183,-0.1187,0,0,0,0,0,0,-0.1434,-0.1387,-0.1398,-0.1351,-0.1319,-0.1274,-0.1237,-0.1242,-0.1216,-0.122,-0.1214,-0.1208,-0.1201,-0.1194,-0.118,-0.1203,-0.1193,-0.1194,-0.1201,-0.1204,-0.1207,-0.1182,-0.1184,0,0,0,0,0,-0.1433,-0.1392,-0.1361,-0.1323,-0.1302,-0.1279,-0.1254,-0.1246,-0.1219,-0.1208,-0.1197,-0.1198,-0.1204,-0.1197,-0.1189,-0.1177,-0.1172,-0.1199,-0.1202,-0.1204,-0.1182,-0.1203,-0.1205,-0.1182,-0.1182,-0.1182,0,0,-0.1426,-0.1393,-0.1373,-0.1321,-0.1291,-0.1256,-0.1264,-0.1218,-0.1213,-0.1207,-0.1187,-0.1195,-0.1203,-0.1201,-0.12,-0.1196,-0.1211,-0.1207,-0.1209,-0.1185,-0.1205,-0.1207,-0.1209,-0.1184,-0.1184,-0.1183,0,0,-0.1367,-0.1359,-0.13,-0.1276,-0.1231,-0.1225,-0.1217,-0.1181,-0.1185,-0.1167,-0.1186,-0.1199,-0.1186,-0.1203,-0.1214,-0.1225,-0.1225,-0.1244,-0.1233,-0.1254,-0.1256,-0.1257,-0.1258,-0.1259,-0.1247,-0.1247,-0.1247,0,-0.1358,-0.1295,-0.1275,-0.122,-0.1203,-0.1215,-0.1172,-0.1176,-0.1147,-0.1149,-0.1162,-0.1178,-0.1191,-0.1207,-0.1226,-0.1231,-0.1232,-0.1216,-0.1256,-0.1257,-0.1258,-0.1259,-0.126,-0.1248,-0.1248,-0.1248,-0.1247,0,-0.1256,-0.1224,-0.1183,-0.1136,-0.1117,-0.1077,-0.1092,-0.109,-0.1116,-0.1126,-0.1141,-0.1162,-0.1169,-0.1205,-0.1217,-0.1245,-0.124,-0.1256,-0.1241,-0.126,-0.1261,-0.1262,-0.1249,-0.1248,-0.1248,-0.1248,0,0,-0.1176,-0.1124,-0.111,-0.1089,-0.1077,-0.1042,-0.1055,-0.1051,-0.1049,-0.1078,-0.1072,-0.113,-0.1147,-0.116,-0.1195,-0.1226,-0.1255,-0.1243,-0.1244,-0.1232,-0.1284,-0.1225,-0.1221,-0.1279,-0.1279,-0.1279,-0.1283,0,-0.11,-0.1008,-0.1007,-0.0949,-0.091,-0.095,-0.0952,-0.0969,-0.0998,-0.0998,-0.1066,-0.1069,-0.1133,-0.1136,-0.1183,-0.1227,-0.1256,-0.1251,-0.1276,-0.1276,-0.1212,-0.1219,-0.1098,-0.1087,-0.1284,-0.1284,-0.1284,0,-0.0992,-0.095,-0.0883,-0.0863,-0.0846,-0.0826,-0.0833,-0.0834,-0.0874,-0.0897,-0.0935,-0.0977,-0.1032,-0.1082,-0.117,-0.1162,-0.1217,-0.1262,-0.1263,-0.1197,-0.1218,-0.11,-0.1081,-0.1238,-0.1285,-0.1285,-0.1285,0,-0.0934,-0.0863,-0.0816,-0.0806,-0.0787,-0.0769,-0.0764,-0.0793,-0.0778,-0.0821,-0.0811,-0.0896,-0.091,-0.1009,-0.1113,-0.1141,-0.1192,-0.1245,-0.1243,-0.1239,-0.1131,-0.1117,-0.125,-0.1298,-0.1298,-0.1298,-0.1298,0,-0.0861,-0.0819,-0.0776,-0.0749,-0.0677,-0.0694,-0.0636,-0.0655,-0.0659,-0.0612,-0.0738,-0.0718,-0.0892,-0.0949,-0.1068,-0.1137,-0.1159,-0.1222,-0.1232,-0.1132,-0.1119,-0.1246,-0.135,-0.1298,-0.1298,-0.1298,-0.1298,0,-0.0815,-0.0798,-0.072,-0.0671,-0.0645,-0.0589,-0.0529,-0.0486,-0.0519,-0.046,-0.0465,-0.057,-0.0642,-0.0799,-0.0938,-0.1045,-0.1196,-0.116,-0.1018,-0.1012,-0.1165,-0.1271,-0.1376,-0.1451,-0.1163,-0.1162,-0.116,0,-0.0787,-0.0745,-0.0643,-0.0574,-0.0542,-0.0463,-0.0404,-0.0409,-0.0356,-0.035,-0.0304,-0.0374,-0.0382,-0.0573,-0.076,-0.0925,-0.1114,-0.0953,-0.0996,-0.114,-0.1269,-0.1361,-0.1425,-0.0865,-0.0862,-0.0859,-0.0857,0,-0.0715,-0.0676,-0.0601,-0.0464,-0.0372,-0.0281,-0.0193,-0.0132,-0.0118,-0.0054,0.0014,0.0008,-0.0174,-0.0271,-0.0521,-0.067,-0.103,-0.0898,-0.1087,-0.1068,-0.1135,-0.122,-0.0902,-0.0831,-0.0833,-0.0835,-0.0836,-0.0837,-0.0632,-0.0557,-0.0442,-0.0312,-0.0209,-0.009,0.0011,0.0106,0.0234,0.0379,0.0331,0.0446,0.0213,-0.0103,-0.0377,-0.0762,-0.0856,-0.0869,-0.0991,-0.1076,-0.1135,-0.0746,-0.0668,-0.0669,-0.0671,-0.0672,-0.0673,0,-0.0492,-0.0416,-0.0293,-0.0123,0.0014,0.0023,0.0167,0.0286,0.0485,0.0664,0.0789,0.089,0.0565,0.0145,-0.0383,-0.0753,-0.0955,-0.0989,-0.1113,-0.1184,-0.0849,-0.0822,-0.0722,-0.0722,-0.0722,-0.0722,-0.0722,-0.0722,-0.0405,-0.0251,-0.0197,0.006,0.0167,0.035,0.0441,0.061,0.0775,0.1113,0.1336,0.1445,0.1186,0.0079,-0.0745,-0.0978,-0.1295,-0.1312,-0.1556,-0.1345,-0.1345,-0.1345,-0.1346,-0.1358,-0.1359,-0.1802,-0.1806,-0.1809]}],[{"header":{"parameterUnit":"m.s-1","parameterCategory":2,"la1":30.2991,"la2":30.254,"lo1":-89.0895,"lo2":-89.0444,"dy":0.0017,"dx":0.0017,"nx":28,"ny":28,"refTime":"2023-10-10T21:00:00:Z","depth":"2","parameterNumber":2,"parameterNumberName":"U-component_of_CURRENTS"},"data":[0,0,0,0,0,0,0,0,0,0,0,0,0,0,0,0,0,0,0,0,0,0,0,0,0,0,0,0,0,0,0,0,0,0,0,0,0,0,0,0,0,0,0,0,0,0,0,0,0,0,0,0,0,0,0,0,0,0,0.2249,0.225,0,0.2385,0.2387,0.2389,0.2475,0.2475,0.2475,0.2475,0.2439,0.2438,0.2437,0,0,0,0,0,0,0,0,0,0,0,0,0,0.235,0.2347,0.2249,0.225,0.2251,0.2384,0.2387,0.2389,0.2475,0.2475,0.2475,0.2475,0.2439,0.2438,0.2437,0,0,0,0,0,0,0,0,0,0,0,0,0,0.2384,0.2346,0.2249,0.2305,0.2311,0.2384,0.2387,0.239,0.2475,0.2475,0.2475,0.2475,0.2439,0.2438,0.2437,0.2433,0,0,0.2433,0.2433,0,0,0,0,0,0,0,0,0.2382,0.2381,0.2296,0.2301,0.2308,0.2407,0.2409,0.2393,0.2475,0.242,0.2475,0.2474,0.2408,0.2409,0.2447,0.2431,0.243,0.2433,0.2432,0.2432,0.2431,0,0,0,0,0,0,0,0.2379,0.2377,0.231,0.2297,0.2304,0.2421,0.2424,0.241,0.2415,0.2425,0.243,0.2434,0.2411,0.2449,0.2446,0.2429,0.2433,0.2432,0.2431,0.2431,0.2466,0.2468,0,0,0,0,0,0,0.2332,0.2373,0.2305,0.2313,0.2337,0.2417,0.2421,0.2381,0.2419,0.2425,0.2434,0.2437,0.2451,0.2448,0.2445,0.2501,0.2432,0.243,0.243,0.2464,0.2466,0.2468,0,0,0,0,0,0,0.2333,0.2323,0.23,0.2345,0.2348,0.2413,0.2369,0.2383,0.2434,0.2427,0.243,0.247,0.2451,0.2447,0.2452,0.2497,0.243,0.2429,0.2462,0.2465,0.2467,0.2573,0,0,0,0,0,0,0.2335,0.2322,0.2292,0.2339,0.2344,0.2378,0.2369,0.2386,0.2432,0.2439,0.2458,0.2455,0.245,0.2454,0.2451,0.2494,0.2428,0.246,0.2464,0.2467,0.2568,0.2579,0.2589,0,0,0,0,0,0.2337,0.2293,0.2289,0.2282,0.2293,0.238,0.2397,0.2449,0.2434,0.2487,0.2477,0.2455,0.2472,0.2454,0.245,0.2494,0.2459,0.2463,0.2466,0.2563,0.2577,0.2589,0,0,0,0,0,0,0.2345,0.2298,0.2295,0.2243,0.2322,0.2393,0.2429,0.2454,0.2494,0.2478,0.2467,0.2465,0.2502,0.2471,0.2451,0.2514,0.2465,0.2468,0.254,0.2553,0.2563,0.2577,0.2427,0,0,0,0,0,0.2321,0.2258,0.2296,0.2267,0.2299,0.2365,0.2402,0.2438,0.2471,0.2492,0.2493,0.2489,0.2515,0.2509,0.2526,0.2536,0.2537,0.2564,0.2575,0.2584,0.2593,0.2643,0.266,0.2481,0.2481,0.2481,0,0,0.2321,0.2283,0.2255,0.2264,0.2319,0.238,0.2391,0.2453,0.2506,0.2471,0.2521,0.2531,0.253,0.2573,0.2583,0.2547,0.2637,0.2589,0.2597,0.26,0.2649,0.2666,0.2682,0.2483,0.2483,0.2482,0,0,0.232,0.2261,0.224,0.2291,0.2349,0.2394,0.2412,0.2485,0.253,0.2571,0.2575,0.2606,0.2612,0.2647,0.2657,0.2724,0.2706,0.2725,0.2774,0.2823,0.2839,0.2852,0.2884,0.29,0.2713,0.2714,0.2714,0,0.2328,0.2291,0.2273,0.23,0.2345,0.2397,0.246,0.2516,0.258,0.2618,0.2593,0.2662,0.2658,0.2735,0.2768,0.2753,0.2766,0.2727,0.2839,0.2852,0.2865,0.2894,0.2909,0.2719,0.2718,0.2718,0.2717,0,0.2334,0.2332,0.2344,0.2362,0.2419,0.2483,0.255,0.2605,0.2629,0.2682,0.2765,0.2774,0.2817,0.2829,0.2815,0.291,0.289,0.2863,0.281,0.2889,0.2914,0.2929,0.2727,0.2725,0.2723,0.2722,0,0,0.2275,0.2334,0.2339,0.2378,0.2456,0.2502,0.2588,0.2699,0.275,0.2806,0.289,0.2944,0.2954,0.2967,0.2968,0.2998,0.3098,0.2964,0.2964,0.3001,0.3204,0.3137,0.3146,0.3094,0.3097,0.3099,0.319,0,0.231,0.2371,0.2386,0.2475,0.2533,0.2595,0.2676,0.2763,0.2828,0.2913,0.2963,0.3033,0.3008,0.303,0.3071,0.3093,0.314,0.3075,0.3116,0.3117,0.3053,0.3162,0.2915,0.297,0.3204,0.3206,0.3208,0,0.2309,0.2349,0.2451,0.2539,0.257,0.2624,0.2742,0.282,0.2952,0.3006,0.3088,0.3123,0.3208,0.316,0.3253,0.3212,0.3228,0.3231,0.3234,0.3143,0.3077,0.2926,0.2988,0.3232,0.323,0.3228,0.3226,0,0.2281,0.238,0.2461,0.2496,0.2613,0.2663,0.2726,0.2851,0.2921,0.3067,0.3118,0.3228,0.3277,0.3322,0.3338,0.3305,0.3423,0.3373,0.3337,0.3331,0.3113,0.3083,0.346,0.346,0.346,0.3459,0.3459,0,0.229,0.2338,0.2453,0.2489,0.2566,0.2652,0.2738,0.2826,0.296,0.3048,0.3158,0.3222,0.3319,0.3388,0.3393,0.3416,0.3475,0.3376,0.3365,0.3142,0.3115,0.3323,0.3306,0.3463,0.3462,0.3461,0.3461,0,0.2246,0.2331,0.2404,0.2527,0.2555,0.2605,0.271,0.2777,0.2915,0.3032,0.3082,0.3243,0.3338,0.3418,0.35,0.3475,0.3501,0.3497,0.3226,0.3181,0.3361,0.3348,0.3466,0.3465,0.3464,0.3463,0.3462,0,0.2246,0.2289,0.2394,0.2433,0.2484,0.2559,0.2615,0.2743,0.2814,0.3018,0.307,0.3225,0.3281,0.3392,0.3409,0.3444,0.3509,0.3235,0.313,0.3393,0.337,0.3358,0.3348,0.2884,0.2879,0.2874,0.2871,0,0.2243,0.2276,0.2342,0.2385,0.2438,0.2491,0.2576,0.2606,0.2777,0.2863,0.2979,0.3036,0.318,0.3106,0.3192,0.3173,0.3207,0.3146,0.3512,0.292,0.2851,0.2826,0.2833,0.2831,0.2835,0.2838,0.284,0.2842,0.2239,0.2256,0.2315,0.2336,0.2396,0.2414,0.2406,0.2493,0.2549,0.2629,0.2765,0.276,0.2849,0.2816,0.2786,0.2812,0.3012,0.2893,0.2904,0.292,0.2836,0.2769,0.2717,0.272,0.2723,0.2725,0.2727,0,0.2206,0.2215,0.2253,0.2281,0.2286,0.2341,0.2375,0.2324,0.2319,0.2401,0.2434,0.2254,0.2237,0.2351,0.2322,0.2368,0.2316,0.2296,0.2198,0.2241,0.2279,0.2158,0.1861,0.1858,0.1855,0.1853,0,0,0.2187,0.2168,0.215,0.213,0.2175,0.2113,0.2097,0.2039,0.2031,0.1933,0.1911,0.2032,0.2206,0.1939,0.198,0.1907,0.2037,0.1844,0.2545,0.2467,0.2499,0.2645,0.2511,0,0,0,0,0]},{"header":{"parameterUnit":"m.s-1","parameterCategory":2,"la1":30.2991,"la2":30.254,"lo1":-89.0895,"lo2":-89.0444,"dy":0.0017,"dx":0.0017,"nx":28,"ny":28,"refTime":"2023-10-10T21:00:00:Z","depth":"2","parameterNumber":3,"parameterNumberName":"V-component_of_CURRENTS"},"data":[0,0,0,0,0,0,0,0,0,0,0,0,0,0,0,0,0,0,0,0,0,0,0,0,0,0,0,0,0,0,0,0,0,0,0,0,0,0,0,0,0,0,0,0,0,0,0,0,0,0,0,0,0,0,0,0,0,0,-0.011,-0.011,0,-0.0185,-0.0187,-0.0188,-0.038,-0.0384,-0.0387,-0.039,-0.0398,-0.0395,-0.0392,0,0,0,0,0,0,0,0,0,0,0,0,0,-0.0039,-0.004,-0.011,-0.011,-0.011,-0.0185,-0.0187,-0.0189,-0.038,-0.0384,-0.0388,-0.0392,-0.0399,-0.0396,-0.0392,0,0,0,0,0,0,0,0,0,0,0,0,0,-0.0095,-0.0041,-0.011,-0.0209,-0.0218,-0.0184,-0.0187,-0.0189,-0.0379,-0.0384,-0.0389,-0.0393,-0.04,-0.0396,-0.0392,-0.0265,0,0,-0.0378,-0.0376,0,0,0,0,0,0,0,0,-0.0092,-0.0099,-0.0194,-0.0202,-0.0212,-0.0271,-0.0164,-0.0208,-0.0378,-0.0326,-0.039,-0.0396,-0.034,-0.0341,-0.0357,-0.0266,-0.0266,-0.0378,-0.0375,-0.0373,-0.0372,0,0,0,0,0,0,0,-0.0088,-0.0096,-0.0148,-0.0193,-0.0204,-0.0216,-0.0232,-0.0174,-0.0309,-0.0331,-0.0343,-0.0337,-0.0347,-0.0361,-0.0358,-0.0266,-0.0378,-0.0374,-0.0372,-0.037,-0.0271,-0.0271,0,0,0,0,0,0,-0.0061,-0.0092,-0.0146,-0.015,-0.0153,-0.0213,-0.0231,-0.0254,-0.0312,-0.0324,-0.0332,-0.0345,-0.0366,-0.0363,-0.0359,-0.0354,-0.0374,-0.0369,-0.0367,-0.0271,-0.0271,-0.0271,0,0,0,0,0,0,-0.006,-0.0066,-0.0142,-0.0114,-0.0124,-0.0209,-0.0233,-0.0252,-0.0313,-0.0312,-0.0326,-0.0377,-0.037,-0.0365,-0.0339,-0.035,-0.0368,-0.0364,-0.0271,-0.0271,-0.0271,-0.0252,0,0,0,0,0,0,-0.0058,-0.0066,-0.0074,-0.0113,-0.0125,-0.0145,-0.0228,-0.025,-0.0294,-0.0313,-0.0352,-0.0357,-0.0373,-0.0345,-0.0334,-0.0345,-0.036,-0.0271,-0.0271,-0.0271,-0.0252,-0.0251,-0.025,0,0,0,0,0,-0.0056,-0.0056,-0.0075,-0.0081,-0.0134,-0.0143,-0.0152,-0.0233,-0.0291,-0.0309,-0.0335,-0.0359,-0.034,-0.0339,-0.0327,-0.0337,-0.0271,-0.0271,-0.0271,-0.0253,-0.0251,-0.025,0,0,0,0,0,0,-0.003,-0.0075,-0.0098,-0.0113,-0.013,-0.0174,-0.0199,-0.0233,-0.0269,-0.029,-0.032,-0.0323,-0.0326,-0.0312,-0.0312,-0.0314,-0.0322,-0.0319,-0.0313,-0.0311,-0.0309,-0.0314,-0.0357,0,0,0,0,0,-0.0017,-0.0045,-0.0066,-0.008,-0.0096,-0.0144,-0.016,-0.0194,-0.0221,-0.025,-0.0267,-0.0287,-0.0301,-0.0294,-0.0297,-0.0246,-0.0269,-0.0259,-0.0257,-0.0256,-0.0254,-0.0295,-0.0297,-0.0271,-0.0271,-0.0271,0,0,-0.0054,-0.0035,-0.0085,-0.0076,-0.0114,-0.0101,-0.0174,-0.0192,-0.0186,-0.0227,-0.0241,-0.0274,-0.0291,-0.0283,-0.0282,-0.0276,-0.0276,-0.0256,-0.0255,-0.0253,-0.0295,-0.0298,-0.03,-0.0271,-0.0271,-0.0271,0,0,-0.0044,-0.0087,-0.009,-0.0081,-0.0069,-0.0084,-0.0088,-0.0121,-0.0165,-0.0147,-0.0205,-0.0237,-0.0229,-0.0256,-0.0268,-0.0241,-0.0279,-0.0257,-0.0232,-0.0272,-0.0275,-0.0277,-0.031,-0.0315,-0.0242,-0.0242,-0.0242,0,-0.0076,-0.004,-0.009,-0.0033,-0.0024,-0.0076,-0.0048,-0.0075,-0.0086,-0.0094,-0.0157,-0.0203,-0.0225,-0.0226,-0.0252,-0.024,-0.0269,-0.0236,-0.0271,-0.0274,-0.0277,-0.031,-0.0316,-0.0241,-0.0241,-0.0242,-0.0242,0,-0.0012,-0.0005,-0.0003,0.0039,0.0042,0.0057,0.0038,0.0031,-0.0023,-0.0042,-0.0084,-0.0137,-0.017,-0.0198,-0.0223,-0.025,-0.0266,-0.0277,-0.0275,-0.0279,-0.0313,-0.032,-0.024,-0.024,-0.0241,-0.0241,0,0,-0.0043,0.0014,0.0019,0.0057,0.009,0.0105,0.0109,0.0113,0.0121,0.0051,0.0034,-0.0046,-0.0104,-0.0123,-0.0169,-0.0214,-0.0277,-0.0257,-0.026,-0.0289,-0.0369,-0.0286,-0.0286,-0.0302,-0.0303,-0.0304,-0.0384,0,0.0017,0.013,0.0145,0.0208,0.024,0.0213,0.0223,0.0224,0.0192,0.0172,0.0065,0.0025,-0.0065,-0.01,-0.0162,-0.023,-0.0296,-0.0255,-0.036,-0.0363,-0.029,-0.0291,-0.0281,-0.0343,-0.0391,-0.0392,-0.0393,0,0.0112,0.0183,0.0255,0.0305,0.0308,0.0336,0.0359,0.0368,0.0329,0.0286,0.0217,0.0141,0.0061,-0.004,-0.0179,-0.015,-0.0272,-0.0349,-0.0353,-0.0286,-0.0293,-0.0348,-0.0355,-0.0405,-0.0404,-0.0403,-0.0403,0,0.0195,0.0263,0.0328,0.035,0.0391,0.0401,0.0404,0.0398,0.0416,0.0355,0.0355,0.0238,0.0166,0.0019,-0.0139,-0.0172,-0.0294,-0.0348,-0.0397,-0.0393,-0.0407,-0.04,-0.0491,-0.0491,-0.049,-0.049,-0.049,0,0.0312,0.037,0.0359,0.0416,0.0465,0.0458,0.0518,0.0496,0.0487,0.0529,0.0408,0.0426,0.0166,0.0077,-0.0092,-0.0227,-0.0257,-0.0391,-0.0405,-0.0397,-0.0389,-0.046,-0.0455,-0.0493,-0.0493,-0.0492,-0.0491,0,0.0422,0.0429,0.0509,0.0525,0.0515,0.0553,0.0582,0.0633,0.0604,0.0652,0.0626,0.0542,0.0436,0.0223,-0.0005,-0.0144,-0.0289,-0.0352,-0.0315,-0.0321,-0.0389,-0.0382,-0.0421,-0.0418,-0.0416,-0.0415,-0.0413,0,0.0483,0.0531,0.0565,0.0596,0.0605,0.0643,0.0669,0.0668,0.0729,0.0765,0.0797,0.0702,0.0688,0.0431,0.0137,-0.0124,-0.0213,-0.0288,-0.0352,-0.037,-0.0381,-0.0377,-0.0374,-0.0384,-0.0383,-0.0381,-0.038,0,0.0583,0.059,0.065,0.0692,0.0731,0.0802,0.0838,0.0915,0.0933,0.0992,0.1073,0.1073,0.0815,0.0568,0.0208,0.0035,-0.0232,-0.0266,-0.0307,-0.0369,-0.0333,-0.0343,-0.0342,-0.0369,-0.0371,-0.0371,-0.0372,-0.0372,0.062,0.0683,0.0727,0.0792,0.0838,0.094,0.1037,0.1107,0.1226,0.1303,0.1283,0.1263,0.0954,0.0515,0.022,-0.0124,-0.0128,-0.0281,-0.0287,-0.0295,-0.0241,-0.02,-0.0203,-0.0203,-0.0203,-0.0204,-0.0204,0,0.0662,0.0744,0.0808,0.0904,0.0981,0.0984,0.1133,0.1247,0.1416,0.1431,0.1473,0.1203,0.0936,0.0583,0.008,-0.0183,-0.0258,-0.0268,-0.0337,-0.0343,-0.035,-0.0304,-0.0281,-0.0282,-0.0283,-0.0284,0,0,0.0707,0.0822,0.0888,0.102,0.1057,0.1202,0.1319,0.1457,0.1523,0.1576,0.151,0.1422,0.1021,0.064,0.0263,-0.0024,-0.0121,-0.0069,0.0026,-0.0015,-0.002,-0.0318,-0.0246,0,0,0,0,0]}],[{"header":{"parameterUnit":"m.s-1","parameterCategory":2,"la1":30.2991,"la2":30.254,"lo1":-89.0895,"lo2":-89.0444,"dy":0.0017,"dx":0.0017,"nx":28,"ny":28,"refTime":"2023-10-10T21:00:00:Z","depth":"4","parameterNumber":2,"parameterNumberName":"U-component_of_CURRENTS"},"data":[0,0,0,0,0,0,0,0,0,0,0,0,0,0,0,0,0,0,0,0,0,0,0,0,0,0,0,0,0,0,0,0,0,0,0,0,0,0,0,0,0,0,0,0,0,0,0,0,0,0,0,0,0,0,0,0,0,0,0.104,0.104,0,0.1056,0.1056,0.1056,0.1107,0.1108,0.1109,0.111,0.125,0.1253,0.1255,0,0,0,0,0,0,0,0,0,0,0,0,0,0.0962,0.0964,0.104,0.104,0.104,0.1056,0.1056,0.1056,0.1107,0.1108,0.1109,0.1111,0.1249,0.1252,0.1256,0,0,0,0,0,0,0,0,0,0,0,0,0,0.0989,0.0964,0.104,0.1068,0.107,0.1056,0.1056,0.1057,0.1106,0.1108,0.111,0.1111,0.1248,0.1252,0.1256,0.1246,0,0,0.1268,0.127,0,0,0,0,0,0,0,0,0.0987,0.0991,0.1063,0.1066,0.1069,0.1082,0.108,0.1126,0.1106,0.1092,0.111,0.1112,0.1204,0.1212,0.1209,0.1252,0.1258,0.1269,0.1271,0.1273,0.1274,0,0,0,0,0,0,0,0.0985,0.099,0.1046,0.1063,0.1067,0.1048,0.1055,0.1088,0.114,0.1093,0.1097,0.1099,0.1207,0.1205,0.1213,0.126,0.1268,0.1272,0.1274,0.1276,0.1409,0.141,0,0,0,0,0,0,0.0988,0.0989,0.1045,0.1046,0.1032,0.1049,0.1056,0.1075,0.1137,0.1147,0.1098,0.1102,0.1197,0.1208,0.1218,0.1321,0.1273,0.1276,0.1279,0.1407,0.1409,0.141,0,0,0,0,0,0,0.0986,0.0993,0.1045,0.1017,0.1023,0.1049,0.107,0.1075,0.1092,0.1139,0.1152,0.1112,0.1199,0.1213,0.1293,0.1323,0.1278,0.1282,0.1406,0.1408,0.1409,0.1456,0,0,0,0,0,0,0.0984,0.0993,0.1017,0.1018,0.1025,0.1052,0.1068,0.1074,0.1089,0.1095,0.1156,0.1169,0.1201,0.1287,0.1297,0.1328,0.1285,0.1405,0.1407,0.1409,0.1453,0.1459,0.1464,0,0,0,0,0,0.0981,0.1,0.1018,0.1025,0.1055,0.1052,0.1054,0.1076,0.1089,0.1098,0.1161,0.1168,0.1307,0.1292,0.1303,0.1336,0.1404,0.1406,0.1409,0.1451,0.1458,0.1464,0,0,0,0,0,0,0.0969,0.1007,0.1027,0.1056,0.1063,0.1062,0.1076,0.1079,0.1128,0.1159,0.1192,0.1211,0.129,0.1301,0.1283,0.1378,0.1352,0.1357,0.138,0.1387,0.1392,0.1403,0.1288,0,0,0,0,0,0.098,0.1014,0.1029,0.1052,0.1063,0.107,0.1075,0.1095,0.1129,0.1151,0.1195,0.125,0.1301,0.1338,0.1384,0.1436,0.145,0.1459,0.1465,0.147,0.1485,0.1527,0.1539,0.1419,0.1419,0.1418,0,0,0.0976,0.1005,0.1022,0.1053,0.1066,0.1088,0.1079,0.1104,0.1133,0.1162,0.1235,0.1276,0.132,0.1392,0.1426,0.1412,0.1512,0.1473,0.1477,0.149,0.1531,0.1543,0.1554,0.142,0.142,0.142,0,0,0.0981,0.1019,0.1051,0.1064,0.11,0.1113,0.1121,0.1145,0.1174,0.124,0.1273,0.1339,0.1407,0.1451,0.1477,0.1536,0.1541,0.1539,0.1582,0.1622,0.1633,0.1642,0.1678,0.169,0.1541,0.1541,0.1541,0,0.0981,0.1025,0.1052,0.1082,0.1101,0.1125,0.1154,0.1179,0.123,0.1268,0.1282,0.1401,0.1438,0.1518,0.1547,0.1552,0.1571,0.1554,0.1631,0.164,0.1649,0.1684,0.1697,0.1544,0.1544,0.1543,0.1543,0,0.0997,0.1045,0.1059,0.1121,0.1145,0.117,0.1213,0.1257,0.1302,0.1335,0.1431,0.1486,0.1559,0.1569,0.1586,0.166,0.1654,0.1633,0.1614,0.1664,0.1697,0.171,0.1548,0.1547,0.1546,0.1545,0,0,0.0974,0.1057,0.1068,0.1108,0.1173,0.1191,0.126,0.1322,0.1377,0.1445,0.1511,0.1603,0.1637,0.1668,0.1686,0.1721,0.1802,0.171,0.171,0.1747,0.1896,0.1782,0.1784,0.1794,0.1797,0.1799,0.1895,0,0.0983,0.1044,0.1089,0.1156,0.1193,0.1248,0.1303,0.1374,0.1442,0.1517,0.1583,0.1663,0.1669,0.1717,0.1757,0.1799,0.1837,0.1778,0.1841,0.1844,0.1737,0.1795,0.1806,0.1905,0.1907,0.1909,0.1911,0,0.099,0.1037,0.1096,0.1193,0.1214,0.1262,0.1368,0.1421,0.153,0.1591,0.1686,0.1732,0.1829,0.1804,0.1918,0.1882,0.1902,0.1915,0.1919,0.1806,0.1752,0.1843,0.1934,0.1932,0.193,0.1929,0.1927,0,0.0955,0.1049,0.1099,0.1124,0.1227,0.128,0.1344,0.1454,0.1513,0.1646,0.1717,0.1821,0.1893,0.1942,0.1994,0.1969,0.2086,0.2051,0.1965,0.1957,0.201,0.1999,0.2115,0.2115,0.2115,0.2115,0.2115,0,0.0938,0.0988,0.1093,0.1113,0.1193,0.1276,0.1369,0.1451,0.1567,0.1644,0.1757,0.1825,0.1932,0.2004,0.2027,0.2045,0.2124,0.1991,0.1979,0.2027,0.2016,0.2019,0.2007,0.2118,0.2118,0.2117,0.2116,0,0.089,0.0953,0.1016,0.1128,0.1176,0.1231,0.1372,0.1435,0.1566,0.1668,0.1717,0.1862,0.1967,0.2047,0.2131,0.2085,0.2107,0.2083,0.2148,0.2135,0.1944,0.1933,0.2009,0.2006,0.2003,0.2001,0.1999,0,0.086,0.0887,0.1005,0.1045,0.1102,0.1204,0.1275,0.142,0.1484,0.1667,0.1703,0.1853,0.1936,0.1976,0.2061,0.2112,0.2078,0.2077,0.1995,0.1955,0.1937,0.193,0.1922,0.1995,0.1994,0.1994,0.1993,0,0.0798,0.0846,0.0893,0.0979,0.1059,0.1133,0.1246,0.1286,0.1445,0.1582,0.1656,0.172,0.183,0.19,0.1959,0.1979,0.2073,0.2048,0.2053,0.1976,0.1939,0.1921,0.1917,0.1984,0.1985,0.1986,0.1986,0,0.0743,0.0759,0.0826,0.0902,0.0979,0.1028,0.1109,0.1198,0.128,0.1485,0.1499,0.1663,0.1793,0.1832,0.188,0.1908,0.1879,0.1807,0.1824,0.1835,0.1735,0.1659,0.1624,0,0,0,0,0,0.0691,0.0711,0.0753,0.0813,0.0879,0.0941,0.1068,0.1152,0.1315,0.1329,0.1409,0.1501,0.1595,0.1675,0.1673,0.1818,0.1888,0.1808,0.1812,0.1932,0.1943,0.1842,0,0,0,0,0,0,0.065,0.0691,0.0719,0.0722,0.0752,0.0823,0.0903,0.1024,0.1039,0.1209,0.1269,0.14,0.1516,0.1576,0.1637,0.1666,0.1637,0.1913,0.191,0.1926,0.1936,0.1945,0.1845,0,0,0,0,0]},{"header":{"parameterUnit":"m.s-1","parameterCategory":2,"la1":30.2991,"la2":30.254,"lo1":-89.0895,"lo2":-89.0444,"dy":0.0017,"dx":0.0017,"nx":28,"ny":28,"refTime":"2023-10-10T21:00:00:Z","depth":"4","parameterNumber":3,"parameterNumberName":"V-component_of_CURRENTS"},"data":[0,0,0,0,0,0,0,0,0,0,0,0,0,0,0,0,0,0,0,0,0,0,0,0,0,0,0,0,0,0,0,0,0,0,0,0,0,0,0,0,0,0,0,0,0,0,0,0,0,0,0,0,0,0,0,0,0,0,0.0537,0.0537,0,0.0517,0.0516,0.0515,0.0474,0.0474,0.0473,0.0473,0.0396,0.0394,0.0393,0,0,0,0,0,0,0,0,0,0,0,0,0,0.0551,0.0551,0.0537,0.0537,0.0538,0.0517,0.0516,0.0515,0.0474,0.0474,0.0473,0.0473,0.0397,0.0395,0.0392,0,0,0,0,0,0,0,0,0,0,0,0,0,0.0535,0.0551,0.0537,0.0518,0.0517,0.0517,0.0516,0.0515,0.0474,0.0474,0.0473,0.0473,0.0397,0.0395,0.0392,0.0388,0,0,0.0384,0.0383,0,0,0,0,0,0,0,0,0.0536,0.0534,0.0521,0.052,0.0518,0.0502,0.0493,0.0471,0.0474,0.0485,0.0473,0.0472,0.043,0.0424,0.0416,0.0384,0.0381,0.0384,0.0383,0.0382,0.0381,0,0,0,0,0,0,0,0.0537,0.0534,0.0524,0.0521,0.0519,0.0515,0.0511,0.0489,0.0456,0.0484,0.0482,0.0488,0.0428,0.0418,0.0414,0.038,0.0384,0.0382,0.038,0.0379,0.0344,0.0345,0,0,0,0,0,0,0.0549,0.0535,0.0525,0.0524,0.0531,0.0515,0.0511,0.0503,0.0457,0.0452,0.0489,0.0486,0.0423,0.0417,0.0411,0.0415,0.0382,0.0379,0.0378,0.0344,0.0344,0.0345,0,0,0,0,0,0,0.0549,0.0548,0.0526,0.0534,0.0531,0.0516,0.0508,0.0503,0.0505,0.0462,0.0454,0.0496,0.0422,0.0414,0.0391,0.0411,0.0378,0.0376,0.0343,0.0344,0.0345,0.0416,0,0,0,0,0,0,0.0549,0.0548,0.0551,0.0534,0.0532,0.052,0.0509,0.0504,0.0511,0.0508,0.0466,0.0458,0.0421,0.0395,0.0388,0.0407,0.0374,0.0342,0.0343,0.0344,0.0413,0.042,0.0425,0,0,0,0,0,0.055,0.0557,0.0551,0.055,0.0535,0.0521,0.0518,0.0503,0.0512,0.0504,0.0482,0.046,0.0397,0.0393,0.0385,0.0404,0.0342,0.0343,0.0344,0.0411,0.0418,0.0425,0,0,0,0,0,0,0.0571,0.0554,0.0546,0.0549,0.0535,0.0516,0.0516,0.0517,0.0496,0.0497,0.0462,0.0451,0.044,0.0412,0.0408,0.0397,0.0369,0.0368,0.0422,0.0429,0.0434,0.0438,0.0372,0,0,0,0,0,0.0577,0.0573,0.0556,0.0559,0.0551,0.054,0.0539,0.053,0.0513,0.0504,0.0477,0.0454,0.0439,0.0426,0.0398,0.0391,0.0355,0.0399,0.0405,0.0411,0.0408,0.0371,0.0373,0.0349,0.0349,0.0349,0,0,0.0594,0.058,0.0583,0.0563,0.055,0.0549,0.0535,0.0534,0.0543,0.0499,0.0496,0.0472,0.0442,0.043,0.0424,0.0409,0.04,0.0412,0.0417,0.0411,0.0372,0.0374,0.0376,0.035,0.035,0.035,0,0,0.0611,0.0602,0.0598,0.0587,0.0573,0.0566,0.0573,0.0556,0.0552,0.0547,0.0526,0.051,0.0483,0.046,0.0451,0.0474,0.0433,0.0476,0.0508,0.0472,0.0474,0.0475,0.0437,0.0434,0.0479,0.0479,0.0479,0,0.0636,0.0624,0.0598,0.0589,0.0597,0.058,0.059,0.0583,0.0564,0.0569,0.0551,0.0525,0.0497,0.0496,0.0503,0.0488,0.046,0.0486,0.048,0.048,0.048,0.0441,0.0437,0.0483,0.0482,0.0482,0.0482,0,0.0633,0.064,0.0638,0.0623,0.0623,0.0629,0.0621,0.0619,0.0624,0.062,0.0616,0.0572,0.0555,0.0553,0.0535,0.0532,0.0511,0.0493,0.0464,0.0486,0.0444,0.0439,0.0488,0.0487,0.0485,0.0485,0,0,0.0652,0.0644,0.0645,0.0656,0.0648,0.0651,0.0665,0.0673,0.0694,0.0666,0.0679,0.0654,0.0634,0.062,0.0595,0.0565,0.0542,0.0536,0.0532,0.0501,0.0464,0.0412,0.04,0.0527,0.0526,0.0526,0.0438,0,0.0664,0.0675,0.0666,0.0697,0.0706,0.0704,0.0721,0.0728,0.0729,0.0727,0.0693,0.069,0.0661,0.0657,0.0624,0.0563,0.0529,0.0567,0.0443,0.0439,0.0392,0.0392,0.0523,0.0433,0.0432,0.043,0.043,0,0.0653,0.067,0.0708,0.0743,0.0747,0.0766,0.0799,0.0814,0.0809,0.0805,0.079,0.0758,0.0721,0.0685,0.0588,0.0616,0.0547,0.0492,0.0487,0.0406,0.0376,0.0402,0.0418,0.0419,0.042,0.0421,0.0422,0,0.0667,0.0697,0.0741,0.0751,0.0784,0.0808,0.0829,0.0842,0.0865,0.0857,0.0859,0.0807,0.0778,0.0689,0.0578,0.0586,0.0453,0.0446,0.0331,0.0326,0.0369,0.0369,0.0367,0.0367,0.0367,0.0368,0.0368,0,0.0675,0.0708,0.0756,0.0777,0.0834,0.0844,0.09,0.0906,0.0922,0.0948,0.0906,0.0891,0.0778,0.069,0.0586,0.0435,0.0456,0.0328,0.0297,0.0402,0.0407,0.0365,0.0365,0.0364,0.0365,0.0366,0.0366,0,0.0681,0.071,0.0768,0.0824,0.0841,0.0888,0.0945,0.098,0.0991,0.1016,0.1014,0.0951,0.0835,0.0705,0.0546,0.0445,0.0306,0.0245,0.0363,0.0341,0.0203,0.0208,0.0113,0.011,0.0108,0.0106,0.0105,0,0.0686,0.0715,0.0803,0.0846,0.0878,0.0942,0.0981,0.1012,0.1047,0.1046,0.105,0.0956,0.0891,0.063,0.0491,0.0274,0.0241,0.0164,0.0185,0.0196,0.0175,0.0184,0.0193,0.0101,0.0101,0.01,0.0099,0,0.0704,0.0744,0.0796,0.088,0.094,0.1007,0.106,0.1078,0.111,0.1122,0.1063,0.0934,0.0793,0.0608,0.0432,0.0281,0.0212,0.014,0.0144,0.0164,0.018,0.0164,0.0175,0.0092,0.0093,0.0094,0.0094,0,0.0723,0.0763,0.0832,0.0904,0.0984,0.1039,0.1069,0.1088,0.1112,0.11,0.1074,0.0933,0.0858,0.061,0.045,0.0289,0.0252,0.0197,0.0198,0.0204,0.0252,0.0288,0.0199,0,0,0,0,0,0.0728,0.0764,0.084,0.0917,0.1001,0.1042,0.1106,0.113,0.1147,0.1105,0.1089,0.0955,0.0708,0.061,0.0438,0.0406,0.0224,0.0197,0.0162,0.0049,0.0058,0.0093,0,0,0,0,0,0,0.0728,0.0797,0.0832,0.0916,0.0964,0.1048,0.1089,0.1106,0.1077,0.1072,0.0948,0.0894,0.0664,0.0806,0.043,0.0383,0.033,0.0094,0.0089,0.0043,0.0052,0.0059,0.0098,0,0,0,0,0]}]]